Regional Weather Roundup
Issued by NWS

Home | Current Version | Previous Version | Graphics & Text | Print | Product List | Glossary On
Versions: 1 2 3 4 5 6 7 8 9 10 11 12 13 14 15 16 17 18 19 20 21 22 23 24 25 26 27 28 29 30 31 32 33 34 35 36 37 38 39 40 41 42 43 44 45 46 47 48 49 50
000
ASUS43 KIND 250759
RWRIN

WEATHER ROUNDUP FOR INDIANA
NATIONAL WEATHER SERVICE INDIANAPOLIS IN
400 AM EDT SAT OCT 25 2014

NOTE: "FAIR" INDICATES FEW OR NO CLOUDS BELOW 12,000 FEET WITH NO
SIGNIFICANT WEATHER AND/OR OBSTRUCTIONS TO VISIBILITY.

* - STATION DOES NOT REPORT WEATHER SUCH AS PRECIPITATION OR FOG.

+ - STATION NOT QUALITY CONTROLLED BY THE NATIONAL WEATHER SERVICE.
    USE DATA WITH CAUTION...ESPECIALLY DEWPOINT AND RELATIVE
    HUMIDITY OBSERVATIONS.

INZ001>003-010>013-019-020-250900-
NORTHWEST INDIANA

CITY           SKY/WX    TMP DP  RH WIND       PRES   REMARKS
GARY /AIRPORT/ PTCLDY    58  53  82 CALM      29.90F
VALPARAISO     NOT AVBL

$$

LMZ046-743>745-250900-
SOUTHERN LAKE MICHIGAN

STATION/POSITION TIME  TEMP WIND        PRES
                       AIR  DIR/SP/G
                 (UTC) (F)  (DEG/KT/KT) (MB)
MICHIGAN CITY    0700   59  190/ 11/ 15   N/A

$$

INZ004-005-014>016-021>024-250900-
NORTH CENTRAL INDIANA

CITY           SKY/WX    TMP DP  RH WIND       PRES   REMARKS
GOSHEN         CLOUDY    55  51  86 S8        29.91F
SOUTH BEND     CLOUDY    56  50  80 SW8       29.92F

$$

INZ006>009-017-018-025>027-250900-
NORTHEAST INDIANA

CITY           SKY/WX    TMP DP  RH WIND       PRES   REMARKS
ANGOLA *+      MOCLDY    45  43  93 CALM      29.92F
AUBURN +       MOCLDY    52  46  82 SW5       29.94F FOG
FORT WAYNE     CLOUDY    51  49  92 SW9       29.95F

$$

INZ028-029-035-036-043>045-051>053-250900-
WEST CENTRAL INDIANA

CITY           SKY/WX    TMP DP  RH WIND       PRES   REMARKS
GREENCASTLE +  MOCLDY    50  50 100 CALM      29.98F
LAFAYETTE      CLOUDY    56  52  86 S5        29.94F
TERRE HAUTE    CLOUDY    57  53  86 S5        29.98F

$$

INZ030>032-037>040-046>048-054>057-064-065-250900-
CENTRAL INDIANA

CITY           SKY/WX    TMP DP  RH WIND       PRES   REMARKS
CP ATTERBURY + MOCLDY    46  45  93 SE3       30.01S
FRANKFORT +    MOCLDY   N/A N/A N/A S3        29.97F
INDIANAPOLIS   MOCLDY    51  48  89 S5        29.97F
-EAGLE CREEK   MOCLDY    52  49  89 S3        29.97F
KOKOMO *+      MOCLDY    54  48  82 S7        29.96F
MT COMFORT *+  MOCLDY    50  50 100 S7        29.99F
SHELBYVILLE    MOCLDY    52  48  86 S6        30.00S
ZIONSVILLE +   MOCLDY    53  49  86 S5        29.97F

$$

INZ033-034-041-042-049-050-058-059-250900-
EAST CENTRAL INDIANA

CITY           SKY/WX    TMP DP  RH WIND       PRES   REMARKS
MUNCIE         PTCLDY    53  49  86 SW7       29.98F

$$

INZ060-061-067>069-081>083-085>088-250900-
SOUTHWEST INDIANA

CITY           SKY/WX    TMP DP  RH WIND       PRES   REMARKS
EVANSVILLE     CLOUDY    56  53  90 SW5       30.03F
HUNTINGBURG *+ PTCLDY    50  46  87 SW6       30.04F

$$

INZ062-063-066-070>080-084-089>092-250900-
SOUTH CENTRAL AND SOUTHEAST INDIANA

CITY           SKY/WX    TMP DP  RH WIND       PRES   REMARKS
BLOOMINGTON    MOCLDY    52  50  93 S5        30.00F

$$




USA.gov is the U.S. government's official web portal to all federal, state and local government web resources and services.